This is the latest recevied weather packets stored in our database for station/object YO2MAS-13. If no packets are shown the sender has not sent any weather packets the latest 10 day(s).
| Time | Temp. | Humidity | Pressure | Rain* | Wind** | Luminosity | Snow |
|---|---|---|---|---|---|---|---|
| 1777419015 | 13.89° C | 80% | 1021.7 hPa | - | - | - | - |
| 1777418115 | 13.89° C | 79% | 1021.9 hPa | - | - | - | - |
| 1777417215 | 13.89° C | 76% | 1021.9 hPa | - | - | - | - |
| 1777416315 | 14.44° C | 78% | 1021.8 hPa | - | - | - | - |
| 1777415910 | 15° C | 89% | 1021.8 hPa | - | - | - | - |
| 1777415415 | 15° C | 89% | 1021.8 hPa | - | - | - | - |
| 1777414515 | 15° C | 79% | 1021.6 hPa | - | - | - | - |
| 1777413615 | 15.56° C | 65% | 1021.5 hPa | - | - | - | - |
| 1777412715 | 15.56° C | 61% | 1021.4 hPa | - | - | - | - |
| 1777411817 | 15.56° C | 54% | 1021.2 hPa | - | - | - | - |
| 1777410915 | 16.11° C | 53% | 1021.1 hPa | - | - | - | - |
| 1777410015 | 16.11° C | 58% | 1021.1 hPa | - | - | - | - |
| 1777409115 | 16.67° C | 64% | 1021 hPa | - | - | - | - |
| 1777408215 | 15.56° C | 50% | 1021 hPa | - | - | - | - |
| 1777407786 | 16.11° C | 50% | 1020.9 hPa | - | - | - | - |
| 1777407315 | 16.11° C | 50% | 1020.9 hPa | - | - | - | - |
| 1777406415 | 16.67° C | 49% | 1020.9 hPa | - | - | - | - |
| 1777405515 | 17.22° C | 47% | 1020.8 hPa | - | - | - | - |
| 1777405166 | 17.22° C | 48% | 1020.8 hPa | - | - | - | - |
| 1777404615 | 17.22° C | 48% | 1020.8 hPa | - | - | - | - |
| 1777403715 | 17.22° C | 47% | 1020.8 hPa | - | - | - | - |
| 1777402815 | 17.78° C | 50% | 1020.7 hPa | - | - | - | - |
| 1777401915 | 17.78° C | 54% | 1020.7 hPa | - | - | - | - |
| 1777401015 | 17.78° C | 52% | 1020.7 hPa | - | - | - | - |
| 1777400115 | 18.33° C | 54% | 1020.6 hPa | - | - | - | - |
* Rain since midnight (hover to see other rain measurements)
** Current wind speed in m/s (hover to see current wind gust speed)